Home   Weather   Zárate   Past weeks

Flag for Argentina Past Weather in Zárate, Buenos Aires, Argentina — Yesterday and Last 2 Weeks

Now
50 °F

Passing clouds.


Feels Like: 48 °F
Forecast: 42 / 68 °F
Wind: 6 mph from West

Location: Buenos Aires Airport

Current Time: Apr 27, 2017 at 8:15:58 am

Latest Report: Apr 27, 2017 at 7:00 am


Visibility: N/A

Pressure: 29.98 "Hg

Humidity: 62%

Dew Point: 37 °F

Location of ZárateLocation

Past Weather in Zárate — Graph

°F

Zárate Temperature Yesterday

Maximum temperature yesterday: 63 °F (at 4:00 pm)
Minimum temperature yesterday: 52 °F (at 5:00 am)
Average temperature yesterday: 57 °F

High & Low Weather Summary for the Past Weeks

 TemperatureHumidityPressure
High77 °F (Apr 20, 3:00 pm)94% (Apr 19, 3:00 pm)30.33 "Hg (Apr 19, 3:00 pm)
Low50 °F (Apr 27, 3:00 am)23% (Apr 21, 6:00 pm)29.62 "Hg (Apr 25, 4:00 pm)
Average63 °F70%30.02 "Hg
* Reported Apr 12 7:00 am — Apr 27 7:00 am, Zárate, Weather by CustomWeather, © 2017

Note: Actual official high and low records may vary slightly from our data, if they occured in-between our weather recording intervals... More about our weather records

Advertising

Zárate Weather History for the Previous 24 Hours

Scroll right to see more
 ConditionsComfort  
Time TempWeatherWind HumidityBarometerVisibility
7:00 am
Thu, Apr 27
50 °FPassing clouds.6 mph62%29.98 "HgN/A
6:00 am50 °FPassing clouds.6 mph67%29.98 "HgN/A
5:00 am50 °FPassing clouds.7 mph62%29.95 "HgN/A
4:00 am50 °FClear.6 mph67%29.95 "Hg10 mi
3:00 am50 °FClear.7 mph67%29.95 "Hg10 mi
2:00 am52 °FClear.3 mph62%29.92 "Hg10 mi
1:00 am54 °FClear.6 mph54%29.92 "Hg10 mi
12:00 am54 °FClear.6 mph54%29.89 "Hg10 mi
11:00 pm
Wed, Apr 26
55 °FClear.6 mph51%29.86 "Hg10 mi
10:00 pm55 °FClear.7 mph51%29.86 "Hg10 mi
9:00 pm57 °FClear.7 mph48%29.86 "Hg10 mi
8:00 pm57 °FClear.8 mph44%29.83 "Hg10 mi
7:00 pm59 °FPassing clouds.12 mph42%29.80 "HgN/A
6:00 pm61 °FPassing clouds.12 mph36%29.80 "HgN/A
5:00 pm61 °FScattered clouds.16 mph34%29.77 "HgN/A
4:00 pm63 °FPassing clouds.14 mph32%29.77 "HgN/A
3:00 pm61 °FPassing clouds.15 mph34%29.74 "HgN/A
2:00 pm61 °FPassing clouds.17 mph36%29.74 "HgN/A
1:00 pm59 °FScattered clouds.15 mph45%29.74 "HgN/A
12:00 pm59 °FScattered clouds.12 mph51%29.77 "HgN/A
11:00 am57 °FPassing clouds.15 mph55%29.74 "HgN/A
10:00 am55 °FPassing clouds.13 mph55%29.74 "HgN/A
9:00 am54 °FPassing clouds.10 mph63%29.74 "HgN/A
8:00 am52 °FPassing clouds.12 mph67%29.71 "HgN/A
Weather by CustomWeather, © 2017

See weather overviewHow to use our weather pages